Change the Weather History Date:

Thursday, December 12, 2013

  Actual Average Record
Temperature  
Mean Temperature 34 °F -  
Max Temperature 44 °F 42 °F 63 °F (1977)
Min Temperature 23 °F 13 °F -2 °F (2001)
Degree Days  
Heating Degree Days 32    
Moisture  
Dew Point 13 °F    
Average Humidity 48    
Maximum Humidity 81    
Minimum Humidity 33    
Precipitation  
Precipitation 0.00 in - - ()
Sea Level Pressure  
Sea Level Pressure 30.27 in    
Wind  
Wind Speed 8 mph (ENE)    
Max Wind Speed 13 mph    
Max Gust Speed 20 mph    
Visibility 10 miles    
Events      
Averages and records for this station are not official NWS values.
T = Trace of Precipitation, MM = Missing Value Source: NWS Daily Summary

Daily Weather History Graph

Daily Weather History Graph

Search for Another Location

Airport or City:

Trip Planner

Search our weather history database for the weather conditions in past years. The results will help you decide how hot, cold, wet, or windy it might be!

Date:

Astronomy

Dec. 12, 2013 Rise Set
Actual Time 7:29 AM MST 5:15 PM MST
Civil Twilight 7:01 AM MST 5:43 PM MST
Nautical Twilight 6:29 AM MST 6:15 PM MST
Astronomical Twilight 5:58 AM MST 6:46 PM MST
Moon 2:18 PM MST (12/12) 3:02 AM MST (12/12)
Length of Visible Light 10h 42m
Length of Day
9h 45m
Waxing Gibbous, 81% of the Moon is Illuminated
Dec 12
Waxing Gibbous
Dec 17
Full
Dec 25
Last Quarter
Jan 1
New
Jan 7
First Quarter

Hourly Weather History & Observations

Time (MST) Temp. Windchill Dew Point Humidity Pressure Visibility Wind Dir Wind Speed Gust Speed Precip Events Conditions
12:54 AM 30.0 °F 22.4 °F 7.0 °F 38% 30.37 in 10.0 mi ENE 8.1 mph - N/A   Clear
1:54 AM 28.9 °F 21.9 °F 7.0 °F 40% 30.38 in 10.0 mi ENE 6.9 mph - N/A   Clear
2:54 AM 28.9 °F 21.9 °F 9.0 °F 43% 30.37 in 10.0 mi ENE 6.9 mph - N/A   Clear
3:54 AM 27.0 °F 19.5 °F 8.1 °F 45% 30.37 in 10.0 mi ENE 6.9 mph - N/A   Clear
4:54 AM 30.0 °F 20.5 °F 8.1 °F 40% 30.34 in 10.0 mi ENE 11.5 mph - N/A   Clear
5:54 AM 28.9 °F 19.8 °F 8.1 °F 41% 30.37 in 10.0 mi ENE 10.4 mph - N/A   Clear
6:54 AM 27.0 °F 18.0 °F 7.0 °F 43% 30.39 in 10.0 mi ENE 9.2 mph - N/A   Clear
7:54 AM 28.9 °F 21.1 °F 7.0 °F 40% 30.37 in 10.0 mi ENE 8.1 mph - N/A   Clear
8:54 AM 34.0 °F 28.0 °F 9.0 °F 35% 30.34 in 10.0 mi ENE 6.9 mph - N/A   Clear
9:54 AM 37.0 °F 28.9 °F 12.9 °F 37% 30.32 in 10.0 mi ENE 12.7 mph 19.6 mph N/A   Clear
10:54 AM 39.9 °F 32.5 °F 14.0 °F 35% 30.30 in 10.0 mi ENE 12.7 mph - N/A   Clear
11:54 AM 41.0 °F 34.3 °F 14.0 °F 33% 30.25 in 10.0 mi ENE 11.5 mph - N/A   Clear
12:54 PM 43.0 °F 37.7 °F 17.1 °F 35% 30.22 in 10.0 mi East 9.2 mph 19.6 mph N/A   Clear
1:54 PM 44.1 °F 38.1 °F 19.0 °F 37% 30.19 in 10.0 mi East 11.5 mph - N/A   Clear
2:54 PM 42.1 °F 35.7 °F 16.0 °F 35% 30.17 in 10.0 mi NE 11.5 mph - N/A   Clear
3:54 PM 39.0 °F 31.8 °F 14.0 °F 36% 30.20 in 10.0 mi NE 11.5 mph - N/A   Clear
4:54 PM 37.0 °F 32.4 °F 14.0 °F 39% 30.18 in 10.0 mi East 5.8 mph - N/A   Partly Cloudy
5:54 PM 33.1 °F 27.7 °F 17.1 °F 52% 30.19 in 10.0 mi ENE 5.8 mph - N/A   Scattered Clouds
6:54 PM 28.9 °F - 19.0 °F 67% 30.22 in 10.0 mi Calm Calm - N/A   Mostly Cloudy
7:54 PM 28.9 °F 22.8 °F 21.0 °F 72% 30.21 in 10.0 mi SW 5.8 mph - N/A   Mostly Cloudy
8:54 PM 28.0 °F 24.2 °F 19.0 °F 69% 30.20 in 10.0 mi NE 3.5 mph - N/A   Mostly Cloudy
9:54 PM 28.0 °F - 19.0 °F 69% 30.17 in 10.0 mi Calm Calm - N/A   Overcast
10:54 PM 23.0 °F - 18.0 °F 81% 30.17 in 10.0 mi Calm Calm - N/A   Clear
11:54 PM 23.0 °F - 18.0 °F 81% 30.16 in 10.0 mi Calm Calm - N/A   Mostly Cloudy